Location: Sydney
(46.1500°N, 60.1670°W)
Time: 16:04:56
(UTC-04:00)

Iridium 90 - Visible Passes

Search period start: 18 January 2017 00:00
Search period end: 28 January 2017 00:00
Orbit: 747 x 750 km, 86.4° (Epoch: 18 January)

Date Brightness Start Highest point End Pass type
(mag) Time Alt. Az. Time Alt. Az. Time Alt. Az.
18 Jan 7.9 06:11:40 10° NNE 06:15:40 23° ENE 06:19:38 10° SE visible
19 Jan 8.5 05:31:44 10° NE 05:33:05 11° ENE 05:34:25 10° E visible
20 Jan 7.0 06:27:07 10° N 06:31:53 38° E 06:36:35 10° SSE visible
20 Jan 7.9 19:21:37 10° S 19:21:37 10° S 19:21:37 10° S visible
21 Jan 8.1 05:45:53 10° NNE 05:49:29 19° ENE 05:53:03 10° ESE visible
21 Jan 7.3 18:40:19 10° SE 18:41:19 15° SE 18:41:19 15° SE visible
21 Jan 7.9 20:20:21 10° SW 20:21:19 15° SW 20:21:19 15° SW visible
22 Jan 5.9 06:42:54 10° N 06:47:58 68° E 06:53:00 10° SSE visible
22 Jan 7.1 18:00:09 10° ESE 18:01:24 14° E 18:01:24 14° E visible
22 Jan 6.0 19:37:35 10° SSW 19:41:25 50° SW 19:41:25 50° SW visible
23 Jan 7.3 06:01:12 10° NNE 06:05:44 32° ENE 06:10:15 10° SE visible
23 Jan 5.4 18:55:40 10° SSE 19:00:36 57° E 19:02:37 34° NNE visible
23 Jan 7.9 20:37:33 10° WSW 20:41:07 19° WNW 20:42:53 16° NW visible
24 Jan 8.3 05:20:12 10° NNE 05:23:17 16° ENE 05:26:21 10° ESE visible
24 Jan 6.3 18:14:36 10° SE 18:18:47 27° E 18:23:01 10° NNE visible
24 Jan 6.7 19:54:01 10° SSW 19:58:43 38° W 20:03:28 10° N visible
25 Jan 6.2 06:16:52 10° N 06:21:53 56° E 06:26:51 10° SSE visible
25 Jan 7.1 17:34:56 10° ESE 17:37:11 13° ENE 17:39:27 10° NE visible
25 Jan 5.4 19:11:29 10° S 19:16:32 82° W 19:21:39 10° N visible
25 Jan 8.5 20:56:13 10° W 20:57:31 11° WNW 20:58:50 10° NW visible
26 Jan 7.6 05:35:18 10° NNE 05:39:35 27° ENE 05:43:52 10° SE visible
26 Jan 5.6 18:29:46 10° SSE 18:34:35 47° E 18:39:26 10° NNE visible
26 Jan 7.7 20:10:59 10° SW 20:14:57 23° WNW 20:18:56 10° NNW visible
27 Jan 8.4 04:54:41 10° NE 04:57:04 13° ENE 04:59:27 10° E visible
27 Jan 5.4 06:32:47 10° N 06:37:54 84° W 06:42:57 10° S visible
27 Jan 6.5 17:48:57 10° SE 17:52:49 23° E 17:56:42 10° NNE visible
27 Jan 6.4 19:27:44 10° SSW 19:32:36 46° W 19:37:30 10° N visible
